Keene, NH

1:13 AM EDT on April 29, 2017 (GMT -0400)
Dillant-Hopkins

Weather History for KEEN - January, 2012

Change the Weather History Date:

Friday, January 20, 2012

  Actual Average Record
Temperature  
Mean Temperature 19 °F -  
Max Temperature 26 °F 31 °F 57 °F (1951)
Min Temperature 12 °F 6 °F -26 °F (1971)
Degree Days  
Heating Degree Days 46    
Moisture  
Dew Point 11 °F    
Average Humidity 67    
Maximum Humidity 93    
Minimum Humidity 36    
Precipitation  
Precipitation 0.04 in - - ()
Sea Level Pressure  
Sea Level Pressure 30.07 in    
Wind  
Wind Speed 3 mph (WNW)    
Max Wind Speed 14 mph    
Max Gust Speed 23 mph    
Visibility 9 miles    
Events      
Averages and records for this station are not official NWS values.
T = Trace of Precipitation, MM = Missing Value Source: NWS Daily Summary

Daily Weather History Graph

Daily Weather History Graph

Search for Another Location

Airport or City:

Trip Planner

Search our weather history database for the weather conditions in past years. The results will help you decide how hot, cold, wet, or windy it might be!

Date:

Astronomy

Jan. 20, 2012 Rise Set
Actual Time 7:14 AM EST 4:45 PM EST
Civil Twilight 6:43 AM EST 5:16 PM EST
Nautical Twilight 6:08 AM EST 5:51 PM EST
Astronomical Twilight 5:35 AM EST 6:25 PM EST
Moon 4:51 AM EST (1/20) 2:12 PM EST (1/20)
Length of Visible Light 10h 33m
Length of Day
9h 30m
Waning Crescent, 8% of the Moon is Illuminated
Jan 20
Waning Crescent
Jan 23
New
Jan 30
First Quarter
Feb 7
Full
Feb 14
Last Quarter

Hourly Weather History & Observations

Time (EST) Temp. Windchill Dew Point Humidity Pressure Visibility Wind Dir Wind Speed Gust Speed Precip Events Conditions
12:15 AM 24.8 °F - 21.2 °F 86% 29.92 in 2.0 mi Calm Calm - N/A   Overcast
12:35 AM 23.0 °F - 21.2 °F 93% 29.91 in 3.0 mi Calm Calm - 0.01 in   Overcast
12:55 AM 24.8 °F - 21.2 °F 86% 29.91 in 4.0 mi Calm Calm - 0.02 in   Overcast
1:15 AM 23.0 °F - 21.2 °F 93% 29.90 in 4.0 mi Calm Calm - 0.01 in   Mostly Cloudy
1:35 AM 23.0 °F - 19.4 °F 86% 29.90 in 6.0 mi Calm Calm - 0.01 in   Clear
1:55 AM 21.2 °F - 19.4 °F 93% 29.90 in 5.0 mi Calm Calm - 0.01 in   Partly Cloudy
2:15 AM 21.2 °F - 19.4 °F 93% 29.90 in 7.0 mi Calm Calm - 0.01 in   Mostly Cloudy
2:35 AM 21.2 °F - 19.4 °F 93% 29.90 in 10.0 mi Calm Calm - 0.01 in   Overcast
2:55 AM 19.4 °F - 17.6 °F 93% 29.90 in 10.0 mi Calm Calm - 0.01 in   Overcast
3:15 AM 21.2 °F - 17.6 °F 86% 29.90 in 10.0 mi Calm Calm - N/A   Overcast
3:35 AM 21.2 °F - 19.4 °F 93% 29.90 in 10.0 mi Calm Calm - N/A   Overcast
4:15 AM 21.2 °F - 19.4 °F 93% 29.90 in 10.0 mi Calm Calm - N/A   Overcast
4:35 AM 21.2 °F - 19.4 °F 93% 29.91 in 10.0 mi Calm Calm - N/A   Overcast
4:55 AM 21.2 °F - 19.4 °F 93% 29.91 in 10.0 mi Calm Calm - N/A   Overcast
5:15 AM 21.2 °F - 19.4 °F 93% 29.93 in 9.0 mi Calm Calm - N/A   Overcast
5:35 AM 23.0 °F - 19.4 °F 86% 29.93 in 10.0 mi Calm Calm - N/A   Mostly Cloudy
5:55 AM 21.2 °F 16.4 °F 17.6 °F 86% 29.94 in 10.0 mi WSW 3.5 mph - N/A   Clear
6:15 AM 21.2 °F - 15.8 °F 80% 29.95 in 10.0 mi Calm Calm - N/A   Clear
6:55 AM 17.6 °F 10.7 °F 15.8 °F 93% 29.97 in 10.0 mi South 4.6 mph - N/A   Clear
7:15 AM 21.2 °F 9.5 °F 15.8 °F 80% 29.99 in 10.0 mi West 11.5 mph - N/A   Clear
7:35 AM 21.2 °F 10.9 °F 14.0 °F 74% 30.00 in 10.0 mi West 9.2 mph 17.3 mph N/A   Clear
7:55 AM 21.2 °F 10.9 °F 12.2 °F 68% 30.02 in 10.0 mi West 9.2 mph - N/A   Clear
8:15 AM 21.2 °F 14.9 °F 12.2 °F 68% 30.04 in 10.0 mi West 4.6 mph - N/A   Clear
8:35 AM 21.2 °F 14.9 °F 12.2 °F 68% 30.05 in 10.0 mi WSW 4.6 mph - N/A   Clear
8:56 AM 23.0 °F 13.1 °F 12.2 °F 63% 30.06 in 10.0 mi West 9.2 mph - N/A   Clear
9:35 AM 23.0 °F 11.1 °F 8.6 °F 54% 30.07 in 10.0 mi NW 12.7 mph 21.9 mph N/A   Clear
9:55 AM 23.0 °F 10.6 °F 6.8 °F 50% 30.08 in 10.0 mi NW 13.8 mph 19.6 mph N/A   Clear
10:15 AM 23.0 °F 13.9 °F 8.6 °F 54% 30.09 in 10.0 mi WNW 8.1 mph 17.3 mph N/A   Clear
10:35 AM 23.0 °F 12.4 °F 3.2 °F 43% 30.10 in 10.0 mi West 10.4 mph 23.0 mph N/A   Clear
10:55 AM 23.0 °F 11.1 °F 6.8 °F 50% 30.10 in 10.0 mi NNW 12.7 mph 21.9 mph N/A   Clear
11:15 AM 23.0 °F 13.1 °F 5.0 °F 46% 30.11 in 10.0 mi WNW 9.2 mph 19.6 mph N/A   Clear
11:35 AM 24.8 °F 15.3 °F 8.6 °F 50% 30.10 in 10.0 mi West 9.2 mph 17.3 mph N/A   Partly Cloudy
11:55 AM 24.8 °F 14.6 °F 8.6 °F 50% 30.09 in 10.0 mi West 10.4 mph - N/A   Mostly Cloudy
12:55 PM 24.8 °F 14.0 °F 6.8 °F 46% 30.10 in 10.0 mi WNW 11.5 mph 21.9 mph N/A   Mostly Cloudy
1:15 PM 24.8 °F 13.4 °F 5.0 °F 43% 30.10 in 10.0 mi NW 12.7 mph 21.9 mph N/A   Partly Cloudy
1:35 PM 24.8 °F 14.0 °F 6.8 °F 46% 30.10 in 10.0 mi NNW 11.5 mph - N/A   Partly Cloudy
1:55 PM 26.6 °F 18.2 °F 5.0 °F 40% 30.11 in 10.0 mi NW 8.1 mph - N/A   Partly Cloudy
2:15 PM 26.6 °F 16.2 °F 5.0 °F 40% 30.12 in 10.0 mi West 11.5 mph 17.3 mph N/A   Clear
2:35 PM 26.6 °F 19.1 °F 5.0 °F 40% 30.13 in 10.0 mi WNW 6.9 mph - N/A   Clear
2:55 PM 26.6 °F 15.7 °F 6.8 °F 43% 30.13 in 10.0 mi NW 12.7 mph 18.4 mph N/A   Clear
3:35 PM 24.8 °F 14.6 °F 3.2 °F 40% 30.13 in 10.0 mi NNW 10.4 mph - N/A   Clear
3:55 PM 24.8 °F 14.0 °F 1.4 °F 36% 30.13 in 10.0 mi NNW 11.5 mph - N/A   Clear
4:15 PM 24.8 °F 19.1 °F 1.4 °F 36% 30.15 in 10.0 mi NW 4.6 mph - N/A   Clear
4:55 PM 24.8 °F 20.5 °F 1.4 °F 36% 30.17 in 10.0 mi West 3.5 mph - N/A   Clear
5:15 PM 23.0 °F 15.8 °F 1.4 °F 39% 30.19 in 10.0 mi West 5.8 mph - N/A   Clear
5:35 PM 21.2 °F 16.4 °F 1.4 °F 42% 30.19 in 10.0 mi West 3.5 mph - N/A   Clear
5:55 PM 21.2 °F 14.9 °F 3.2 °F 46% 30.20 in 10.0 mi West 4.6 mph - N/A   Clear
6:35 PM 15.8 °F - 6.8 °F 68% 30.21 in 10.0 mi Calm Calm - N/A   Clear
6:55 PM 15.8 °F - 3.2 °F 58% 30.22 in 10.0 mi Calm Calm - N/A   Clear
7:15 PM 15.8 °F - 6.8 °F 68% 30.22 in 10.0 mi Calm Calm - N/A   Clear
7:35 PM 15.8 °F - 6.8 °F 68% 30.22 in 10.0 mi Calm Calm - N/A   Clear
7:55 PM 12.2 °F - 6.8 °F 79% 30.23 in 10.0 mi Calm Calm - N/A   Clear
8:15 PM 12.2 °F - 1.4 °F 62% 30.25 in 10.0 mi Calm Calm - N/A   Clear
8:55 PM 12.2 °F - 6.8 °F 79% 30.24 in 10.0 mi Calm Calm - N/A   Clear
9:15 PM 12.2 °F 6.1 °F 6.8 °F 79% 30.24 in 10.0 mi NW 3.5 mph - N/A   Clear
9:35 PM 14.0 °F - 6.8 °F 73% 30.24 in 10.0 mi Calm Calm - N/A   Clear
9:55 PM 14.0 °F - 6.8 °F 73% 30.25 in 10.0 mi Calm Calm - N/A   Clear
10:15 PM 14.0 °F - 6.8 °F 73% 30.25 in 10.0 mi Calm Calm - N/A   Clear
10:35 PM 14.0 °F - 6.8 °F 73% 30.25 in 10.0 mi Calm Calm - N/A   Clear
10:55 PM 12.2 °F - 6.8 °F 79% 30.25 in 10.0 mi Calm Calm - N/A   Clear
11:35 PM 12.2 °F - 6.8 °F 79% 30.25 in 10.0 mi Calm Calm - N/A   Scattered Clouds
11:55 PM 12.2 °F - 8.6 °F 85% 30.26 in 10.0 mi Calm Calm - N/A   Partly Cloudy